STARLINK-31971, 59934

Orbit data source: Space-Track

STARLINK-31971, 59934 is a payload satellite owned by SpaceX/Seattle (US) in LEO that was launched on Sat, 01 Jun 2024 UTC via an FALCON 9 launch vehicle from the Air Force Eastern Test Range (AFETR). Payload-class satellites include a variety of spacecraft equipped with specific instruments for various scientific and technological missions. These include communications satellites like Starlink; space stations such as the ISS; scientific satellites like the Hubble; Earth observation satellites from companies like Planet Labs, Umbra, and HawkEye 360; GPS; miniature CubeSats for education and research; and military/defense satellites.

Loading next visibility...
Identifier
59934, 2024-106N
Orbit
LEO
Country
Flag of USUS
Related business
Manufacturer
SpaceX/Seattle
Mission
Operational Commercial Communications
Bus & Motor
STARLINK V2M, Unknown motor
Mass
730 kg wet, ~700 kg dry
Launch date (UTC)
2024-06-01 (2 years ago)
Launch vehicle
FALCON 9
Launch site
Air Force Eastern Test Range (AFETR)
Object type
Payload
Rocket body
Debris
Shape & HBR
Box + 2 Pan, 17.7 m
Radar Cross Section
33.884 m², Large (>1 m²)

Expand to show TLE details & history
Last TLE update: 19 hours ago

TLE from 19 hours ago
0 STARLINK-31971
1 59934U 24106N   26037.34088686 -.00000340  00000-0 -28563-5 0  9992
2 59934  42.9994 146.3648 0000873 259.9743 100.1010 15.27556335 95647
Epoch: 2026-02-06T08:10Z
TLE epoch observation values (Epoch: 2026-02-06T08:10:52.624Z)
Latitude
-0.00004°
Longitude
-112.83466°
Altitude
483 km
Speed
7.626 km/s
True Right ascension
09h 45m 27s
True Declination
0° 00' 00"
Sunlit
Object was in full shadow at epoch
Visualization orbit readout
Latitude
Unknown
Longitude
Unknown
Altitude
Unknown
Speed
Unknown
Apparent Right ascension
Unknown
Apparent Declination
Unknown
Sunlit
N/A
Visualization observer readout
Local Sidereal Time
05:14:43
Azimuth
Unknown
Elevation
Unknown
Doppler factor
Unknown
Orbital elements
Apogee altitude
485.664 km
Perigee altitude
484.466 km
Semi-major axis
6,863.202 km
Eccentricity
0.00009
Inclination
42.9994°
RAAN
146.3648°
Arg. of periapsis
259.9743°
True anomaly
100.11085°
Mean anomaly
100.101°
Eccentric anomaly
100.10592°
Mean motion
3.81727 °/min
Orbital period
94.31 mins
BSTAR
-0.0000028563
Loading maneuver chart data...
Computing Atmospheric mass density...
Loading historical data...
Loading historical data...
Loading historical data...
Loading historical data...
Loading historical data...
Loading historical data...
Loading historical data...

Documentation

Showing up to 5 results
|